[[{"header":{"parameterUnit":"m.s-1","parameterCategory":1,"la1":30.2991,"la2":30.254,"lo1":-89.0895,"lo2":-89.0444,"dy":0.0017,"dx":0.0017,"nx":28,"ny":28,"refTime":"2024-09-01T09:00:00:Z","depth":0,"parameterNumber":2,"parameterNumberName":"U-component_of_WINDS"},"data":[0,0,0,0,0,0,0,0,0,0,0,0,0,0,0,0,0,0,0,0,0,0,0,0,0,0,0,0,0,0,0,0,0,0,0,0,0,0,0,0,0,0,0,0,0,0,0,0,0,0,0,0,0,0,0,0,0,0,0.5384,0.5385,0,0.5472,0.5473,0.5474,0.5548,0.5549,0.555,0.555,0.5637,0.5639,0.564,0,0,0,0,0,0,0,0,0,0,0,0,0,0.5277,0.5278,0.5384,0.5385,0.5386,0.5471,0.5473,0.5474,0.5548,0.5549,0.555,0.5551,0.5637,0.5638,0.564,0,0,0,0,0,0,0,0,0,0,0,0,0,0.534,0.5279,0.5384,0.5433,0.5439,0.5471,0.5473,0.5474,0.5548,0.5549,0.555,0.5551,0.5636,0.5638,0.5641,0.563,0,0,0.5648,0.5649,0,0,0,0,0,0,0,0,0.5336,0.5344,0.5425,0.543,0.5436,0.55,0.5467,0.5526,0.5547,0.5506,0.555,0.5552,0.559,0.5596,0.561,0.5634,0.5638,0.5648,0.5649,0.565,0.5651,0,0,0,0,0,0,0,0.5332,0.534,0.5418,0.5426,0.5433,0.545,0.546,0.5479,0.554,0.551,0.5515,0.5525,0.5594,0.5608,0.5613,0.5639,0.5648,0.565,0.5651,0.5652,0.5658,0.5657,0,0,0,0,0,0,0.532,0.5336,0.5416,0.5421,0.5388,0.5451,0.5463,0.5478,0.554,0.5551,0.5524,0.5528,0.5603,0.561,0.5616,0.5608,0.565,0.5652,0.5654,0.5659,0.5658,0.5657,0,0,0,0,0,0,0.5317,0.5326,0.5412,0.538,0.5392,0.5452,0.5469,0.5479,0.5494,0.5551,0.5562,0.5527,0.5604,0.5613,0.5626,0.5612,0.5653,0.5656,0.5661,0.5659,0.5657,0.559,0,0,0,0,0,0,0.5314,0.5325,0.5322,0.538,0.5394,0.5421,0.5468,0.548,0.5498,0.5504,0.5557,0.5567,0.5606,0.5622,0.5628,0.5615,0.5657,0.5662,0.566,0.5658,0.5594,0.5586,0.558,0,0,0,0,0,0.531,0.53,0.5322,0.5331,0.5392,0.5421,0.5429,0.5475,0.5496,0.5494,0.553,0.5565,0.5612,0.5623,0.5631,0.5618,0.5664,0.5661,0.5658,0.5597,0.5588,0.558,0,0,0,0,0,0,0.5238,0.5308,0.5334,0.5342,0.5375,0.5433,0.5431,0.5464,0.5491,0.5495,0.5551,0.5562,0.5569,0.5595,0.5606,0.5611,0.5642,0.5641,0.5594,0.5585,0.5578,0.5571,0.5659,0,0,0,0,0,0.5223,0.5242,0.5301,0.5302,0.5318,0.5371,0.5386,0.5419,0.5455,0.5469,0.5506,0.5539,0.5562,0.5575,0.5599,0.5598,0.561,0.5593,0.5586,0.558,0.5578,0.5579,0.5572,0.5648,0.5648,0.5648,0,0,0.5193,0.5233,0.5241,0.5289,0.5319,0.5335,0.5383,0.5399,0.5411,0.5471,0.5486,0.5514,0.5555,0.5561,0.5566,0.5583,0.556,0.5577,0.5571,0.5573,0.5575,0.5568,0.5561,0.5646,0.5646,0.5646,0,0,0.5145,0.5178,0.5183,0.5211,0.5256,0.5292,0.5292,0.5346,0.5368,0.5384,0.5429,0.5444,0.5481,0.5508,0.5526,0.5489,0.5521,0.5495,0.5457,0.5457,0.5451,0.5446,0.5432,0.5426,0.5492,0.5492,0.5492,0,0.5101,0.5129,0.518,0.5194,0.5213,0.5269,0.5273,0.5298,0.5347,0.5359,0.5378,0.5425,0.5457,0.5469,0.546,0.5473,0.5475,0.5489,0.5448,0.5444,0.544,0.5426,0.5421,0.5489,0.5489,0.549,0.549,0,0.5073,0.5091,0.5089,0.5136,0.5156,0.5164,0.5215,0.5228,0.5259,0.5292,0.5307,0.5347,0.5379,0.5385,0.5415,0.5401,0.5411,0.5438,0.5471,0.5428,0.5416,0.5412,0.5484,0.5485,0.5486,0.5487,0,0,0.4982,0.5058,0.5056,0.5078,0.5131,0.5146,0.5156,0.5189,0.5198,0.523,0.524,0.527,0.5296,0.5316,0.535,0.535,0.5316,0.5378,0.5379,0.5364,0.5303,0.5281,0.5275,0.5339,0.5338,0.5337,0.5299,0,0.4943,0.4966,0.5012,0.502,0.5037,0.5091,0.51,0.5132,0.5163,0.5182,0.5216,0.5236,0.5269,0.5282,0.5284,0.532,0.5305,0.5324,0.5347,0.5347,0.5334,0.5269,0.5246,0.5208,0.5295,0.5294,0.5294,0,0.49,0.493,0.494,0.4991,0.5,0.5007,0.5041,0.5058,0.5096,0.5118,0.5141,0.5178,0.5191,0.5221,0.5239,0.5251,0.5263,0.5281,0.5281,0.5284,0.5317,0.5269,0.5198,0.5191,0.5288,0.5288,0.5289,0,0.4832,0.4874,0.4886,0.4903,0.4963,0.4967,0.4992,0.5032,0.5048,0.5077,0.5088,0.5117,0.5132,0.5154,0.5197,0.5216,0.5209,0.5244,0.5227,0.5226,0.5223,0.5222,0.5151,0.5232,0.5232,0.5232,0.5232,0,0.4783,0.4787,0.4856,0.4863,0.4868,0.4921,0.4924,0.4954,0.4988,0.5001,0.5049,0.5059,0.5117,0.5133,0.5167,0.5176,0.5183,0.52,0.5209,0.5196,0.5193,0.5204,0.5207,0.5231,0.5231,0.5231,0.5231,0,0.4708,0.4754,0.477,0.4826,0.4841,0.4842,0.489,0.4897,0.4932,0.4947,0.4953,0.5006,0.5029,0.5074,0.5109,0.5132,0.5132,0.5148,0.5119,0.5125,0.5105,0.5106,0.5037,0.5031,0.5116,0.5115,0.5115,0,0.4673,0.4677,0.4734,0.4746,0.477,0.4789,0.4806,0.4858,0.4873,0.4917,0.4919,0.4945,0.4969,0.5001,0.5042,0.5069,0.5085,0.5059,0.5089,0.5075,0.5084,0.5082,0.5083,0.5052,0.5051,0.505,0.5049,0,0.4606,0.4629,0.4652,0.4683,0.4703,0.473,0.4759,0.4766,0.4824,0.4839,0.4863,0.4881,0.4917,0.4941,0.4974,0.4999,0.5033,0.504,0.5037,0.5023,0.5006,0.5014,0.51,0.5041,0.5042,0.5042,0.5043,0.5043,0.4549,0.4555,0.4596,0.462,0.4648,0.4674,0.4684,0.472,0.4741,0.4775,0.4803,0.4824,0.4861,0.4908,0.4931,0.4947,0.4964,0.496,0.4959,0.4957,0.4951,0.5004,0.4953,0.4953,0.4954,0.4954,0.4954,0,0.4484,0.4513,0.4535,0.4575,0.4593,0.4626,0.4659,0.4672,0.4691,0.4723,0.4745,0.4772,0.4796,0.4839,0.4866,0.4871,0.4887,0.4876,0.4876,0.4881,0.4935,0.4934,0.4862,0.4862,0.4862,0.4862,0.4862,0.4862,0.4452,0.4464,0.4491,0.4516,0.4545,0.4567,0.4583,0.4607,0.4633,0.4661,0.4682,0.471,0.4746,0.4776,0.4799,0.4811,0.4818,0.4802,0.4819,0.4868,0.4877,0.4885,0.4885,0.4804,0.4804,0.4763,0.4763,0.4762]},{"header":{"parameterUnit":"m.s-1","parameterCategory":1,"la1":30.2991,"la2":30.254,"lo1":-89.0895,"lo2":-89.0444,"dy":0.0017,"dx":0.0017,"nx":28,"ny":28,"refTime":"2024-09-01T09:00:00:Z","depth":0,"parameterNumber":3,"parameterNumberName":"V-component_of_WINDS"},"data":[0,0,0,0,0,0,0,0,0,0,0,0,0,0,0,0,0,0,0,0,0,0,0,0,0,0,0,0,0,0,0,0,0,0,0,0,0,0,0,0,0,0,0,0,0,0,0,0,0,0,0,0,0,0,0,0,0,0,-2.3743,-2.3744,0,-2.3795,-2.3796,-2.3796,-2.3761,-2.3759,-2.3758,-2.3756,-2.381,-2.3813,-2.3816,0,0,0,0,0,0,0,0,0,0,0,0,0,-2.3613,-2.3616,-2.3743,-2.3744,-2.3745,-2.3795,-2.3796,-2.3797,-2.3761,-2.3759,-2.3757,-2.3756,-2.3809,-2.3812,-2.3816,0,0,0,0,0,0,0,0,0,0,0,0,0,-2.3668,-2.3617,-2.3743,-2.3733,-2.3733,-2.3795,-2.3796,-2.3797,-2.3762,-2.3759,-2.3757,-2.3755,-2.3808,-2.3812,-2.3816,-2.3892,0,0,-2.383,-2.3832,0,0,0,0,0,0,0,0,-2.3665,-2.3673,-2.3734,-2.3734,-2.3734,-2.3769,-2.377,-2.3829,-2.3762,-2.3751,-2.3756,-2.3753,-2.3798,-2.3803,-2.3818,-2.3894,-2.3897,-2.383,-2.3833,-2.3835,-2.3836,0,0,0,0,0,0,0,-2.3661,-2.367,-2.3764,-2.3735,-2.3735,-2.3726,-2.3731,-2.3781,-2.3787,-2.3752,-2.3749,-2.3756,-2.3798,-2.3814,-2.3819,-2.3897,-2.383,-2.3834,-2.3837,-2.3838,-2.4037,-2.4039,0,0,0,0,0,0,-2.3658,-2.3667,-2.3762,-2.3765,-2.3693,-2.373,-2.3736,-2.376,-2.3787,-2.3789,-2.3758,-2.3754,-2.3808,-2.3814,-2.3821,-2.3911,-2.3835,-2.3839,-2.3841,-2.4034,-2.4038,-2.404,0,0,0,0,0,0,-2.3656,-2.3667,-2.376,-2.3716,-2.3727,-2.3735,-2.3763,-2.3762,-2.3779,-2.3791,-2.3792,-2.3773,-2.3806,-2.3815,-2.3874,-2.3912,-2.3841,-2.3845,-2.4031,-2.4035,-2.4039,-2.4092,0,0,0,0,0,0,-2.3652,-2.3666,-2.3695,-2.3717,-2.3729,-2.3813,-2.3765,-2.3765,-2.3787,-2.3782,-2.3806,-2.3808,-2.3805,-2.3868,-2.3879,-2.3917,-2.3848,-2.4028,-2.4033,-2.4038,-2.4087,-2.4097,-2.4106,0,0,0,0,0,-2.3647,-2.3708,-2.3697,-2.3709,-2.3766,-2.3815,-2.3822,-2.3818,-2.379,-2.3819,-2.3827,-2.3807,-2.3906,-2.3874,-2.3886,-2.3927,-2.4025,-2.4032,-2.4037,-2.4082,-2.4095,-2.4106,0,0,0,0,0,0,-2.3692,-2.3711,-2.3699,-2.3768,-2.379,-2.3809,-2.3846,-2.3831,-2.3862,-2.3856,-2.3849,-2.3855,-2.3917,-2.3927,-2.3891,-2.4001,-2.3961,-2.397,-2.3992,-2.4004,-2.4013,-2.401,-2.3852,0,0,0,0,0,-2.3709,-2.3748,-2.3762,-2.3822,-2.3834,-2.3838,-2.3859,-2.3853,-2.3876,-2.3885,-2.3897,-2.392,-2.3956,-2.398,-2.4014,-2.4087,-2.4092,-2.4121,-2.4131,-2.4138,-2.4146,-2.4186,-2.4199,-2.406,-2.406,-2.406,0,0,-2.3746,-2.3762,-2.3787,-2.3831,-2.3848,-2.3888,-2.3846,-2.389,-2.392,-2.3892,-2.3949,-2.3958,-2.3983,-2.405,-2.408,-2.4061,-2.4185,-2.4146,-2.4152,-2.4156,-2.4193,-2.4206,-2.4218,-2.4064,-2.4063,-2.4063,0,0,-2.3835,-2.385,-2.3902,-2.3919,-2.3944,-2.3946,-2.3958,-2.3979,-2.3984,-2.4041,-2.4021,-2.4056,-2.4118,-2.4137,-2.4154,-2.4248,-2.4232,-2.4259,-2.431,-2.4349,-2.436,-2.4369,-2.4403,-2.4415,-2.4267,-2.4267,-2.4267,0,-2.3878,-2.3938,-2.393,-2.3976,-2.3996,-2.3972,-2.4024,-2.4041,-2.4076,-2.409,-2.4068,-2.4146,-2.4161,-2.4231,-2.4254,-2.4269,-2.4283,-2.4257,-2.4358,-2.4368,-2.4377,-2.4409,-2.4422,-2.427,-2.427,-2.427,-2.4269,0,-2.399,-2.4031,-2.4069,-2.4104,-2.4128,-2.4177,-2.4176,-2.4202,-2.4193,-2.4198,-2.4256,-2.4272,-2.4309,-2.4325,-2.4318,-2.4395,-2.4382,-2.4359,-2.432,-2.4394,-2.4424,-2.4436,-2.4275,-2.4274,-2.4273,-2.4272,0,0,-2.4109,-2.4137,-2.4152,-2.4167,-2.4192,-2.4224,-2.4271,-2.4306,-2.4329,-2.4353,-2.4393,-2.4445,-2.4424,-2.4444,-2.4438,-2.4472,-2.4545,-2.4445,-2.4445,-2.4464,-2.4631,-2.4649,-2.4664,-2.4534,-2.4536,-2.4538,-2.4629,0,-2.4199,-2.4282,-2.4276,-2.4353,-2.4391,-2.4368,-2.4409,-2.4429,-2.4434,-2.4467,-2.4472,-2.451,-2.4479,-2.449,-2.4522,-2.453,-2.4579,-2.4523,-2.4571,-2.4573,-2.4567,-2.4679,-2.4698,-2.4784,-2.4641,-2.4643,-2.4645,0,-2.4316,-2.4344,-2.4426,-2.4445,-2.446,-2.4497,-2.4529,-2.4561,-2.4583,-2.4584,-2.4605,-2.4593,-2.4641,-2.4599,-2.4664,-2.4626,-2.4645,-2.4652,-2.4655,-2.466,-2.4614,-2.4688,-2.4811,-2.4824,-2.4663,-2.4662,-2.466,0,-2.4396,-2.4454,-2.451,-2.4524,-2.4547,-2.4573,-2.4584,-2.4604,-2.4625,-2.4653,-2.4667,-2.47,-2.4718,-2.4743,-2.4741,-2.4711,-2.4807,-2.4765,-2.4809,-2.481,-2.4832,-2.4831,-2.496,-2.4842,-2.4842,-2.4842,-2.4842,0,-2.4498,-2.4549,-2.4546,-2.4581,-2.4637,-2.4629,-2.4685,-2.4693,-2.471,-2.4745,-2.4727,-2.4761,-2.4754,-2.4788,-2.4786,-2.484,-2.4849,-2.4851,-2.485,-2.4853,-2.4853,-2.4867,-2.4861,-2.4845,-2.4845,-2.4844,-2.4843,0,-2.4598,-2.4598,-2.4657,-2.4674,-2.4679,-2.472,-2.4734,-2.4767,-2.4769,-2.4815,-2.4825,-2.4829,-2.4868,-2.4867,-2.4911,-2.491,-2.4977,-2.4968,-2.497,-2.4968,-2.5013,-2.5009,-2.5157,-2.5176,-2.5044,-2.5046,-2.5047,0,-2.4663,-2.4702,-2.4722,-2.4745,-2.4757,-2.4794,-2.4815,-2.4809,-2.4832,-2.4859,-2.4888,-2.4925,-2.4954,-2.5017,-2.5024,-2.5058,-2.5051,-2.51,-2.5056,-2.5058,-2.5052,-2.5051,-2.5054,-2.5109,-2.5111,-2.5112,-2.5113,0,-2.4781,-2.4778,-2.481,-2.4842,-2.4869,-2.4893,-2.4916,-2.4936,-2.4931,-2.4958,-2.4997,-2.502,-2.5064,-2.5101,-2.5133,-2.5144,-2.5128,-2.5126,-2.5138,-2.5143,-2.5142,-2.5144,-2.4994,-2.5123,-2.5122,-2.5122,-2.5121,-2.5121,-2.4866,-2.4899,-2.4918,-2.4954,-2.4971,-2.4992,-2.5023,-2.5029,-2.5062,-2.5098,-2.5091,-2.5135,-2.5155,-2.5196,-2.521,-2.5244,-2.5226,-2.5244,-2.5248,-2.5253,-2.5258,-2.5136,-2.5249,-2.5249,-2.5249,-2.5248,-2.5248,0,-2.4983,-2.4994,-2.5027,-2.5059,-2.5087,-2.5069,-2.5092,-2.5117,-2.5156,-2.5176,-2.5204,-2.5249,-2.5284,-2.5294,-2.5328,-2.5353,-2.5347,-2.5362,-2.5361,-2.5364,-2.5272,-2.5258,-2.5367,-2.5367,-2.5367,-2.5367,-2.5367,-2.5367,-2.5047,-2.5102,-2.5102,-2.5165,-2.5175,-2.5218,-2.5233,-2.5253,-2.5268,-2.5319,-2.5348,-2.5353,-2.5369,-2.5403,-2.5435,-2.5436,-2.545,-2.5469,-2.5468,-2.5382,-2.537,-2.5359,-2.5346,-2.5472,-2.5472,-2.5558,-2.5558,-2.5559]}]]